Temp
-10 -10 -10 -10 -10 -10 -10 -10 -10 -10 -10 -10 -10 -10 -10 -10 -10 -10 -10 -10 -10 -10 -10 -9 -9 -9 -9 -9 -9 -9 -9 -8 -8 -8 -8 -7 -7 -7 -7 -7 -7 -7 -7 -7 -7 -6 -6 -6 -6 -5 -5 -5 -5 -5 -5 -5 -5 -5 -4 -4 -4 -3 -3 -3 -2 -2 -2 -2 -2
-10 -10 -10 -10 -11 -11 -11 -11 -11 -11 -10 -10 -10 -11 -11 -10 -10 -10 -10 -10 -10 -10 -10 -9 -9 -9 -9 -9 -9 -9 -9 -9 -8 -8 -8 -8 -7 -7 -7 -7 -7 -7 -7 -7 -7 -7 -6 -6 -6 -6 -5 -5 -5 -5 -5 -5 -5 -5 -4 -4 -4 -4 -3 -3 -3 -2 -2 -2 -1
-10 -10 -10 -11 -11 -11 -11 -11 -11 -11 -10 -10 -10 -11 -11 -11 -11 -11 -11 -10 -10 -10 -10 -9 -9 -9 -9 -9 -9 -9 -9 -9 -8 -8 -8 -8 -8 -7 -7 -7 -7 -7 -7 -7 -7 -7 -7 -6 -6 -6 -5 -5 -5 -5 -5 -5 -5 -5 -5 -4 -4 -4 -3 -3 -3 -2 -2 -1 -1
-10 -10 -11 -11 -11 -11 -11 -11 -11 -11 -11 -11 -11 -11 -11 -11 -11 -11 -11 -10 -10 -10 -10 -9 -9 -9 -9 -9 -9 -9 -9 -9 -9 -8 -8 -8 -8 -8 -7 -7 -7 -7 -7 -7 -7 -7 -7 -7 -6 -6 -5 -6 -5 -5 -5 -5 -5 -5 -5 -5 -4 -4 -4 -3 -3 -2 -2 -2 -1
-10 -10 -10 -11 -11 -11 -11 -11 -11 -11 -11 -11 -11 -11 -11 -11 -11 -11 -11 -10 -10 -10 -10 -9 -9 -9 -9 -9 -8 -8 -8 -8 -8 -8 -8 -8 -8 -8 -8 -8 -8 -7 -7 -7 -7 -7 -7 -7 -6 -6 -6 -6 -6 -5 -5 -5 -5 -5 -5 -5 -5 -4 -4 -4 -3 -3 -2 -2 -1
-10 -10 -10 -10 -11 -11 -11 -11 -11 -10 -11 -11 -11 -12 -12 -12 -11 -11 -11 -11 -10 -10 -10 -9 -9 -9 -9 -8 -8 -8 -8 -8 -8 -8 -8 -8 -8 -8 -8 -8 -8 -8 -8 -8 -8 -7 -7 -7 -6 -6 -6 -6 -6 -5 -5 -5 -5 -5 -5 -5 -5 -4 -4 -4 -3 -3 -2 -2 -2
-10 -10 -10 -10 -10 -10 -10 -10 -10 -10 -11 -11 -12 -12 -12 -12 -11 -11 -11 -11 -11 -10 -10 -10 -9 -9 -9 -8 -8 -8 -8 -8 -8 -8 -8 -8 -8 -8 -8 -8 -8 -8 -8 -8 -8 -7 -7 -7 -7 -6 -6 -6 -6 -6 -5 -5 -5 -5 -5 -5 -5 -5 -4 -4 -4 -3 -3 -2 -1
-10 -10 -10 -10 -10 -10 -10 -10 -10 -10 -11 -11 -12 -12 -12 -12 -11 -11 -11 -11 -11 -11 -10 -10 -10 -9 -9 -8 -8 -8 -8 -8 -8 -8 -8 -8 -8 -8 -8 -8 -8 -8 -8 -8 -8 -7 -7 -7 -7 -7 -7 -6 -6 -6 -5 -5 -5 -5 -5 -5 -5 -5 -4 -4 -4 -4 -3 -2 -2
-10 -10 -10 -10 -10 -10 -10 -10 -10 -11 -11 -12 -12 -12 -12 -12 -12 -12 -12 -12 -11 -11 -11 -10 -10 -9 -9 -9 -8 -8 -8 -8 -8 -8 -8 -8 -8 -8 -8 -8 -8 -8 -8 -8 -8 -7 -7 -7 -7 -7 -7 -6 -6 -6 -5 -5 -5 -5 -5 -5 -5 -5 -4 -4 -4 -4 -3 -3 -2
-10 -10 -10 -10 -10 -10 -10 -10 -11 -11 -11 -12 -12 -12 -12 -12 -12 -12 -12 -12 -12 -11 -11 -11 -10 -10 -9 -9 -9 -8 -8 -8 -8 -8 -8 -8 -8 -8 -8 -8 -8 -8 -8 -8 -7 -7 -7 -7 -7 -7 -7 -6 -6 -6 -5 -5 -5 -5 -5 -5 -5 -5 -5 -4 -4 -4 -4 -3 -3
-10 -10 -10 -10 -10 -10 -10 -11 -11 -11 -12 -12 -12 -12 -12 -12 -12 -12 -12 -12 -12 -12 -11 -11 -10 -10 -9 -9 -9 -9 -8 -8 -8 -8 -8 -8 -8 -8 -8 -8 -8 -8 -8 -8 -7 -7 -7 -7 -7 -7 -7 -6 -6 -6 -5 -5 -5 -5 -5 -5 -5 -5 -5 -4 -4 -4 -4 -3 -3
-11 -11 -11 -11 -11 -11 -11 -11 -11 -12 -12 -12 -12 -12 -12 -12 -12 -12 -12 -12 -12 -12 -11 -11 -10 -10 -10 -10 -9 -9 -9 -9 -8 -8 -8 -8 -8 -8 -8 -8 -8 -8 -8 -8 -7 -7 -7 -7 -7 -7 -7 -6 -6 -6 -6 -6 -6 -5 -5 -5 -5 -5 -5 -5 -4 -4 -4 -4 -3
-11 -11 -11 -11 -11 -11 -11 -11 -12 -12 -12 -12 -12 -12 -12 -12 -12 -12 -13 -13 -12 -12 -11 -11 -11 -10 -10 -10 -10 -9 -9 -9 -9 -9 -9 -9 -9 -9 -8 -8 -8 -8 -8 -8 -7 -7 -7 -8 -7 -7 -7 -6 -6 -6 -6 -6 -6 -6 -5 -5 -5 -5 -5 -5 -4 -4 -4 -4 -3
-11 -11 -11 -11 -11 -11 -11 -12 -12 -12 -12 -12 -12 -12 -12 -12 -12 -12 -13 -13 -12 -12 -11 -11 -11 -11 -10 -10 -10 -10 -9 -9 -9 -9 -9 -9 -9 -9 -9 -9 -9 -8 -8 -7 -7 -7 -7 -7 -7 -7 -7 -7 -6 -6 -6 -6 -6 -6 -6 -5 -5 -5 -5 -5 -4 -4 -4 -4 -4
-11 -11 -11 -11 -11 -11 -12 -12 -12 -12 -12 -12 -12 -12 -12 -12 -12 -12 -13 -12 -12 -12 -11 -11 -11 -11 -10 -10 -10 -10 -10 -9 -9 -9 -9 -9 -9 -9 -9 -9 -9 -8 -8 -7 -7 -7 -7 -7 -7 -7 -7 -7 -7 -7 -7 -6 -6 -6 -6 -6 -6 -5 -5 -5 -5 -4 -4 -4 -4
-11 -11 -11 -11 -11 -11 -12 -12 -12 -12 -12 -12 -12 -12 -12 -12 -12 -12 -12 -12 -12 -11 -11 -11 -11 -11 -11 -10 -10 -10 -10 -10 -10 -10 -10 -10 -9 -9 -9 -9 -9 -8 -8 -7 -7 -7 -7 -7 -7 -7 -7 -7 -7 -7 -7 -6 -6 -6 -6 -6 -6 -5 -5 -5 -5 -4 -4 -4 -4
-11 -11 -11 -11 -11 -12 -12 -12 -12 -12 -12 -12 -11 -12 -12 -12 -12 -12 -12 -12 -12 -11 -11 -11 -11 -11 -11 -11 -10 -10 -10 -10 -10 -10 -10 -10 -10 -10 -9 -9 -9 -8 -8 -7 -7 -7 -7 -7 -7 -7 -7 -7 -7 -7 -7 -7 -6 -6 -6 -6 -6 -6 -5 -5 -5 -5 -4 -4 -4
-11 -11 -11 -11 -11 -12 -12 -12 -12 -12 -12 -12 -11 -12 -12 -12 -12 -12 -12 -12 -12 -11 -11 -11 -11 -11 -11 -11 -11 -10 -10 -10 -10 -10 -10 -10 -10 -10 -10 -9 -9 -8 -8 -7 -7 -7 -7 -7 -7 -7 -7 -7 -7 -7 -7 -7 -6 -6 -6 -6 -6 -6 -6 -5 -5 -5 -5 -4 -4
-11 -11 -11 -12 -12 -12 -12 -12 -12 -12 -12 -12 -12 -12 -12 -12 -12 -12 -12 -12 -12 -11 -11 -11 -11 -11 -11 -11 -11 -11 -11 -11 -11 -11 -10 -10 -10 -10 -10 -9 -9 -8 -8 -7 -7 -7 -7 -7 -7 -7 -7 -7 -7 -7 -7 -6 -6 -6 -6 -6 -6 -6 -6 -6 -5 -5 -5 -5 -4
-11 -11 -12 -12 -12 -12 -12 -12 -12 -12 -12 -12 -12 -12 -12 -12 -12 -12 -12 -12 -12 -12 -12 -12 -11 -11 -11 -11 -11 -11 -11 -11 -11 -11 -11 -11 -10 -10 -10 -9 -9 -8 -8 -7 -7 -7 -8 -8 -7 -7 -7 -7 -7 -7 -7 -6 -6 -6 -6 -6 -6 -6 -6 -6 -6 -6 -5 -5 -5
-11 -12 -12 -12 -12 -12 -12 -12 -12 -12 -12 -12 -12 -12 -12 -12 -12 -12 -12 -12 -12 -12 -12 -12 -12 -11 -11 -11 -11 -11 -11 -11 -11 -11 -11 -11 -11 -10 -10 -9 -9 -8 -8 -7 -7 -7 -8 -8 -7 -7 -7 -7 -7 -7 -7 -7 -7 -6 -6 -6 -6 -6 -6 -6 -6 -6 -6 -5 -5
-11 -12 -12 -12 -12 -12 -12 -12 -12 -12 -12 -12 -12 -12 -12 -12 -12 -12 -12 -12 -12 -12 -12 -12 -12 -11 -11 -11 -11 -11 -11 -11 -11 -11 -11 -11 -11 -10 -10 -9 -9 -8 -8 -7 -7 -7 -8 -8 -7 -6 -6 -6 -7 -7 -7 -7 -7 -7 -6 -6 -6 -6 -6 -6 -6 -6 -6 -6 -5
-12 -12 -12 -12 -12 -12 -12 -12 -12 -12 -12 -12 -12 -12 -12 -12 -12 -12 -12 -12 -12 -12 -12 -12 -12 -12 -11 -11 -11 -11 -11 -11 -11 -11 -11 -11 -11 -10 -10 -9 -9 -8 -8 -8 -8 -8 -8 -8 -7 -6 -6 -6 -6 -6 -7 -7 -7 -7 -7 -6 -6 -6 -6 -6 -6 -6 -6 -6 -6
-12 -12 -12 -12 -12 -12 -12 -12 -12 -12 -12 -12 -12 -12 -12 -12 -12 -12 -12 -12 -12 -12 -12 -12 -12 -12 -12 -11 -12 -12 -12 -12 -11 -11 -11 -11 -11 -10 -10 -9 -9 -9 -9 -8 -8 -8 -8 -8 -6 -6 -6 -6 -6 -6 -7 -7 -7 -7 -7 -6 -6 -6 -6 -6 -6 -6 -6 -6 -6
-12 -12 -12 -12 -12 -12 -12 -12 -12 -12 -12 -12 -12 -12 -12 -12 -12 -12 -12 -12 -12 -12 -12 -12 -12 -12 -12 -12 -12 -12 -12 -12 -12 -12 -11 -11 -11 -10 -10 -10 -9 -9 -9 -8 -8 -8 -8 -8 -6 -6 -6 -6 -7 -7 -7 -7 -7 -7 -7 -6 -6 -6 -7 -6 -6 -6 -6 -6 -6
-12 -12 -12 -12 -12 -12 -12 -12 -12 -12 -12 -12 -12 -12 -12 -12 -12 -12 -12 -12 -12 -12 -12 -12 -12 -12 -12 -12 -12 -12 -12 -12 -12 -12 -12 -12 -11 -10 -10 -10 -9 -9 -9 -9 -8 -8 -8 -7 -6 -6 -6 -7 -7 -7 -7 -7 -7 -7 -7 -7 -7 -7 -7 -7 -7 -6 -6 -6 -6
-12 -12 -12 -12 -12 -12 -12 -12 -12 -12 -12 -12 -12 -12 -12 -12 -12 -12 -12 -12 -12 -12 -12 -12 -12 -12 -12 -12 -12 -12 -12 -12 -12 -12 -12 -12 -11 -11 -10 -10 -10 -10 -9 -9 -8 -8 -8 -7 -6 -6 -6 -7 -7 -7 -7 -7 -7 -7 -7 -7 -7 -7 -7 -7 -7 -7 -6 -6 -6
-12 -12 -12 -12 -12 -12 -12 -12 -12 -12 -12 -12 -12 -12 -12 -12 -12 -12 -12 -12 -12 -12 -12 -12 -12 -12 -12 -12 -12 -12 -12 -12 -12 -12 -12 -12 -11 -11 -10 -10 -10 -9 -9 -8 -8 -8 -7 -6 -6 -6 -7 -7 -7 -7 -7 -7 -7 -7 -7 -7 -7 -7 -7 -7 -7 -7 -7 -7 -6
-12 -12 -12 -12 -12 -12 -12 -12 -12 -12 -12 -12 -12 -12 -12 -12 -12 -12 -12 -12 -12 -12 -12 -12 -12 -12 -12 -12 -12 -12 -12 -12 -12 -12 -12 -12 -11 -11 -11 -10 -10 -9 -9 -8 -8 -8 -7 -6 -7 -7 -7 -7 -7 -8 -8 -7 -7 -7 -7 -7 -7 -7 -7 -7 -7 -7 -7 -7 -7
-12 -12 -12 -12 -12 -12 -12 -12 -12 -12 -12 -12 -12 -12 -12 -12 -12 -12 -12 -12 -12 -12 -12 -12 -12 -12 -12 -12 -12 -12 -12 -12 -12 -12 -12 -12 -12 -11 -11 -11 -10 -9 -9 -8 -8 -8 -7 -7 -7 -7 -8 -8 -8 -8 -8 -8 -7 -7 -7 -7 -7 -7 -7 -7 -7 -7 -7 -7 -7
-12 -12 -12 -12 -12 -12 -12 -12 -12 -12 -12 -12 -12 -12 -12 -12 -12 -12 -12 -12 -12 -12 -12 -12 -12 -12 -12 -12 -12 -12 -12 -12 -12 -12 -12 -12 -12 -11 -11 -11 -10 -9 -9 -8 -8 -8 -8 -7 -8 -8 -8 -8 -8 -8 -8 -8 -8 -8 -8 -8 -7 -7 -7 -7 -7 -7 -7 -7 -7
-12 -12 -12 -12 -12 -12 -12 -12 -12 -12 -12 -12 -12 -12 -13 -13 -12 -12 -12 -12 -12 -12 -12 -12 -12 -12 -12 -12 -12 -12 -12 -12 -12 -12 -12 -12 -11 -11 -11 -11 -10 -10 -9 -9 -9 -8 -8 -7 -8 -8 -8 -8 -8 -8 -8 -8 -8 -8 -8 -8 -8 -8 -7 -7 -7 -7 -7 -7 -7
-12 -12 -12 -12 -12 -12 -12 -12 -12 -12 -12 -13 -13 -13 -13 -13 -13 -12 -12 -12 -12 -12 -12 -12 -12 -12 -12 -12 -12 -12 -12 -12 -12 -12 -12 -12 -11 -11 -11 -11 -10 -10 -10 -9 -9 -9 -8 -8 -8 -8 -8 -8 -8 -8 -8 -8 -8 -8 -8 -8 -8 -8 -7 -7 -7 -7 -7 -7 -7
-12 -12 -12 -12 -12 -12 -12 -12 -12 -12 -13 -13 -13 -13 -13 -13 -13 -13 -13 -13 -13 -12 -12 -12 -12 -12 -12 -12 -12 -12 -12 -12 -12 -12 -12 -12 -11 -11 -11 -11 -10 -10 -10 -10 -9 -9 -9 -8 -8 -8 -8 -8 -8 -8 -8 -8 -8 -8 -8 -8 -8 -8 -7 -7 -7 -7 -7 -7 -7
-12 -12 -12 -12 -12 -12 -12 -12 -12 -12 -13 -13 -13 -13 -13 -13 -13 -13 -13 -13 -13 -13 -12 -12 -12 -13 -13 -12 -12 -12 -12 -12 -12 -12 -12 -12 -12 -11 -11 -11 -10 -10 -10 -10 -10 -9 -9 -9 -8 -8 -8 -9 -9 -9 -8 -8 -8 -8 -8 -8 -8 -8 -7 -7 -7 -7 -7 -7 -7
-12 -12 -12 -12 -12 -12 -12 -12 -12 -12 -12 -13 -13 -13 -13 -13 -13 -13 -13 -13 -13 -13 -13 -13 -13 -13 -13 -13 -12 -12 -12 -13 -13 -12 -12 -12 -12 -11 -11 -11 -11 -10 -10 -10 -10 -10 -9 -9 -9 -9 -9 -9 -9 -9 -8 -8 -8 -8 -9 -9 -8 -8 -8 -8 -7 -7 -6 -7 -7
-12 -12 -12 -12 -12 -12 -12 -12 -12 -12 -13 -13 -13 -13 -13 -13 -13 -14 -13 -13 -13 -13 -13 -13 -13 -13 -13 -13 -13 -13 -13 -13 -13 -13 -13 -12 -12 -12 -11 -11 -11 -10 -10 -10 -10 -10 -10 -9 -9 -9 -9 -9 -9 -9 -8 -8 -8 -8 -9 -9 -9 -8 -8 -8 -7 -7 -7 -7 -7
-12 -12 -12 -12 -12 -12 -12 -13 -13 -13 -13 -13 -13 -14 -14 -14 -14 -14 -14 -14 -14 -13 -13 -13 -13 -13 -13 -13 -13 -13 -13 -13 -13 -13 -13 -12 -12 -12 -12 -11 -11 -11 -10 -10 -10 -10 -10 -10 -10 -9 -9 -9 -9 -9 -8 -8 -8 -8 -9 -9 -9 -9 -8 -8 -8 -8 -7 -7 -7
-12 -12 -13 -13 -13 -13 -13 -13 -13 -13 -14 -14 -14 -14 -14 -14 -14 -14 -14 -14 -14 -14 -14 -13 -13 -13 -13 -13 -13 -13 -13 -13 -13 -13 -13 -13 -12 -12 -12 -11 -11 -11 -11 -10 -11 -10 -10 -10 -10 -10 -9 -9 -9 -9 -8 -8 -8 -9 -9 -9 -9 -9 -8 -8 -8 -8 -8 -7 -7
-12 -13 -13 -13 -14 -14 -14 -14 -14 -14 -14 -14 -15 -15 -14 -14 -14 -14 -14 -14 -14 -14 -14 -14 -13 -13 -13 -13 -13 -13 -13 -13 -13 -13 -13 -13 -13 -12 -12 -12 -11 -11 -11 -10 -11 -11 -10 -10 -10 -10 -10 -10 -9 -9 -9 -9 -9 -9 -9 -9 -9 -9 -8 -8 -8 -8 -8 -8 -8
-13 -13 -13 -14 -14 -14 -14 -14 -14 -14 -15 -15 -15 -15 -15 -15 -15 -14 -14 -14 -14 -14 -14 -14 -14 -13 -13 -13 -13 -13 -13 -13 -13 -13 -13 -13 -13 -13 -12 -12 -12 -11 -11 -10 -11 -11 -11 -10 -10 -10 -10 -10 -10 -9 -9 -9 -9 -9 -9 -9 -9 -9 -8 -8 -8 -8 -8 -8 -8
Height
1533 1531 1529 1528 1526 1524 1522 1521 1519 1518 1516 1514 1512 1510 1508 1507 1505 1503 1502 1500 1498 1495 1493 1491 1489 1487 1485 1483 1482 1480 1479 1478 1476 1475 1473 1472 1471 1471 1470 1468 1466 1464 1463 1461 1459 1458 1456 1454 1452 1450 1448 1447 1445 1443 1442 1440 1438 1437 1435 1434 1433 1432 1431 1430 1429 1428 1428 1427 1426
1532 1530 1529 1527 1525 1524 1522 1520 1518 1517 1515 1513 1511 1510 1508 1507 1505 1503 1501 1499 1497 1495 1493 1490 1488 1486 1484 1483 1481 1480 1478 1477 1475 1474 1473 1471 1470 1470 1468 1467 1465 1463 1462 1460 1458 1457 1455 1453 1451 1449 1448 1446 1444 1443 1441 1439 1438 1436 1434 1432 1431 1429 1428 1428 1427 1427 1426 1425 1425
1531 1529 1528 1526 1525 1523 1521 1520 1518 1516 1514 1512 1511 1509 1508 1506 1504 1502 1500 1498 1496 1494 1492 1490 1488 1485 1483 1482 1480 1479 1477 1476 1474 1473 1472 1470 1469 1468 1467 1466 1464 1463 1461 1459 1458 1456 1454 1452 1450 1448 1446 1445 1443 1442 1440 1438 1437 1435 1433 1431 1429 1428 1427 1426 1425 1425 1424 1423 1423
1530 1528 1527 1525 1524 1522 1521 1519 1517 1515 1513 1511 1510 1508 1507 1505 1503 1501 1499 1497 1495 1493 1492 1489 1487 1485 1483 1481 1479 1478 1476 1475 1473 1472 1471 1469 1468 1467 1466 1464 1463 1461 1460 1458 1457 1455 1453 1451 1449 1447 1445 1444 1442 1441 1439 1438 1435 1434 1432 1430 1428 1427 1426 1424 1423 1423 1422 1422 1421
1529 1528 1526 1524 1523 1521 1519 1518 1516 1513 1512 1510 1509 1507 1506 1504 1502 1500 1498 1496 1494 1492 1490 1488 1487 1484 1482 1480 1478 1477 1475 1473 1473 1471 1470 1468 1467 1466 1464 1463 1462 1460 1459 1457 1455 1453 1452 1450 1448 1446 1444 1443 1441 1440 1438 1436 1434 1433 1431 1429 1428 1426 1424 1423 1421 1420 1419 1419 1419
1528 1526 1524 1523 1521 1519 1518 1516 1514 1513 1511 1509 1508 1506 1505 1503 1501 1499 1497 1495 1493 1491 1489 1488 1486 1483 1482 1479 1477 1475 1473 1472 1471 1470 1468 1467 1465 1464 1463 1462 1460 1459 1458 1456 1454 1452 1450 1448 1446 1444 1443 1441 1440 1438 1437 1435 1433 1432 1430 1428 1427 1425 1423 1422 1420 1418 1417 1416 1415
1526 1525 1523 1521 1520 1518 1516 1515 1513 1511 1509 1508 1506 1505 1503 1501 1499 1498 1496 1494 1492 1490 1488 1486 1484 1483 1480 1478 1476 1474 1473 1471 1469 1468 1467 1466 1464 1463 1461 1460 1459 1458 1456 1454 1453 1451 1449 1447 1445 1443 1441 1440 1438 1437 1436 1434 1433 1431 1429 1427 1426 1424 1423 1421 1419 1417 1416 1414 1413
1525 1524 1522 1520 1518 1517 1515 1513 1512 1510 1508 1506 1505 1503 1502 1500 1498 1496 1494 1492 1490 1488 1487 1485 1483 1481 1479 1478 1476 1473 1472 1470 1468 1467 1466 1464 1463 1461 1460 1458 1457 1456 1454 1453 1451 1449 1447 1445 1444 1442 1440 1438 1437 1435 1434 1433 1431 1429 1428 1426 1424 1423 1422 1420 1418 1416 1414 1413 1411
1524 1523 1521 1519 1517 1516 1514 1512 1510 1508 1507 1505 1504 1502 1500 1498 1497 1495 1493 1491 1489 1488 1486 1484 1482 1480 1478 1477 1475 1473 1471 1469 1467 1466 1464 1463 1461 1460 1458 1457 1456 1454 1453 1451 1449 1447 1446 1444 1442 1441 1439 1438 1436 1434 1433 1431 1429 1428 1426 1425 1423 1422 1420 1418 1417 1415 1413 1411 1409
1523 1521 1519 1518 1516 1514 1513 1511 1509 1507 1506 1504 1503 1501 1499 1497 1495 1493 1492 1490 1488 1486 1484 1483 1481 1478 1477 1475 1473 1472 1470 1468 1466 1464 1463 1462 1460 1458 1457 1455 1454 1452 1451 1449 1448 1446 1444 1443 1441 1439 1438 1437 1435 1433 1431 1430 1428 1427 1425 1423 1422 1420 1419 1417 1415 1413 1411 1409 1408
1522 1520 1518 1517 1515 1513 1511 1509 1508 1506 1504 1503 1501 1499 1498 1496 1494 1493 1491 1489 1487 1485 1483 1482 1479 1477 1475 1474 1472 1470 1469 1467 1465 1463 1462 1460 1459 1457 1456 1454 1453 1451 1449 1448 1446 1445 1443 1441 1440 1438 1437 1435 1433 1432 1430 1428 1427 1425 1423 1422 1420 1419 1417 1416 1414 1412 1410 1408 1406
1521 1519 1518 1516 1514 1512 1510 1508 1507 1505 1503 1502 1500 1498 1497 1495 1493 1491 1489 1488 1486 1484 1482 1480 1478 1476 1474 1473 1471 1469 1468 1466 1464 1463 1461 1459 1458 1456 1454 1453 1451 1450 1448 1447 1445 1444 1442 1440 1438 1437 1435 1433 1432 1430 1428 1427 1425 1423 1422 1420 1418 1417 1416 1414 1413 1411 1409 1407 1405
1520 1518 1517 1515 1513 1511 1509 1508 1506 1504 1503 1501 1499 1497 1495 1493 1492 1490 1489 1487 1485 1483 1481 1479 1477 1475 1473 1472 1470 1468 1467 1465 1463 1462 1460 1458 1457 1455 1453 1452 1450 1448 1447 1446 1444 1443 1441 1439 1437 1435 1434 1432 1430 1429 1427 1426 1424 1422 1420 1418 1417 1416 1414 1413 1411 1409 1408 1406 1404
1520 1518 1516 1514 1513 1511 1509 1507 1505 1503 1502 1500 1498 1497 1495 1493 1491 1489 1488 1486 1484 1482 1480 1478 1476 1474 1473 1471 1469 1467 1466 1464 1462 1461 1459 1458 1456 1454 1452 1450 1449 1448 1446 1444 1443 1441 1439 1438 1436 1434 1433 1431 1429 1428 1426 1425 1423 1421 1419 1418 1416 1414 1413 1411 1409 1408 1406 1404 1403
1519 1517 1516 1514 1512 1510 1508 1507 1505 1503 1501 1499 1498 1496 1494 1492 1490 1489 1487 1485 1483 1481 1479 1477 1475 1473 1472 1470 1468 1466 1465 1463 1461 1460 1458 1457 1455 1453 1451 1449 1448 1446 1445 1443 1442 1440 1438 1436 1435 1433 1431 1429 1428 1426 1425 1423 1422 1420 1418 1417 1415 1413 1411 1410 1408 1407 1405 1403 1402
1518 1517 1515 1513 1512 1510 1508 1506 1505 1503 1501 1499 1497 1495 1493 1492 1490 1488 1486 1484 1482 1480 1478 1476 1474 1472 1470 1469 1467 1466 1464 1462 1461 1459 1457 1455 1454 1452 1450 1448 1447 1445 1444 1442 1441 1439 1437 1435 1433 1432 1430 1428 1427 1426 1424 1423 1421 1419 1418 1416 1414 1413 1411 1409 1407 1406 1404 1403 1401
1518 1516 1514 1513 1511 1509 1508 1506 1504 1503 1501 1499 1497 1495 1493 1491 1489 1488 1486 1484 1482 1479 1477 1475 1473 1472 1470 1468 1466 1465 1463 1461 1460 1458 1457 1455 1453 1451 1449 1448 1446 1444 1443 1441 1439 1438 1436 1434 1432 1431 1429 1428 1427 1425 1423 1422 1420 1418 1417 1415 1413 1412 1410 1408 1407 1405 1403 1402 1400
1518 1516 1514 1512 1511 1509 1507 1506 1504 1502 1500 1498 1496 1494 1493 1491 1488 1487 1485 1483 1481 1479 1477 1475 1473 1471 1469 1467 1465 1464 1462 1460 1459 1457 1456 1454 1452 1450 1448 1447 1445 1444 1442 1441 1439 1437 1435 1433 1431 1429 1428 1427 1426 1424 1423 1421 1419 1418 1416 1414 1413 1411 1410 1408 1406 1404 1403 1401 1400
1517 1515 1513 1512 1510 1508 1507 1505 1503 1502 1500 1498 1496 1494 1492 1490 1488 1486 1484 1483 1481 1478 1476 1474 1472 1470 1469 1467 1465 1463 1462 1460 1458 1457 1455 1453 1451 1449 1448 1446 1445 1443 1442 1440 1438 1436 1434 1432 1430 1428 1427 1426 1425 1424 1422 1420 1418 1417 1415 1414 1412 1411 1409 1408 1406 1404 1403 1401 1399
1517 1515 1513 1511 1510 1508 1506 1505 1503 1501 1499 1497 1495 1493 1491 1489 1488 1486 1484 1482 1480 1478 1476 1474 1472 1470 1468 1466 1464 1463 1461 1459 1458 1456 1454 1452 1451 1449 1447 1446 1444 1442 1441 1439 1437 1435 1433 1430 1428 1427 1427 1426 1424 1423 1421 1420 1418 1416 1415 1413 1412 1410 1409 1407 1405 1404 1402 1400 1399
1516 1514 1513 1511 1509 1508 1506 1504 1503 1501 1498 1497 1495 1493 1491 1489 1488 1486 1483 1481 1479 1477 1475 1473 1472 1469 1467 1465 1463 1462 1460 1458 1457 1455 1453 1452 1450 1448 1447 1445 1443 1442 1439 1438 1436 1434 1431 1428 1426 1426 1426 1425 1424 1422 1421 1419 1418 1416 1415 1413 1412 1410 1408 1407 1405 1403 1402 1400 1398
1516 1514 1513 1511 1509 1508 1506 1504 1502 1500 1498 1496 1494 1492 1490 1489 1487 1485 1483 1481 1479 1477 1475 1473 1471 1469 1467 1465 1463 1461 1459 1458 1456 1455 1453 1451 1449 1448 1446 1444 1443 1441 1438 1436 1435 1432 1429 1426 1425 1426 1426 1424 1423 1422 1420 1418 1417 1416 1414 1413 1412 1410 1408 1406 1404 1403 1401 1400 1398
1516 1514 1512 1510 1509 1507 1505 1503 1502 1500 1498 1496 1494 1492 1490 1488 1487 1484 1483 1481 1478 1477 1475 1473 1471 1468 1466 1464 1463 1461 1459 1457 1456 1454 1452 1451 1449 1447 1445 1444 1442 1440 1438 1435 1433 1431 1428 1425 1426 1426 1425 1423 1422 1421 1419 1418 1417 1416 1414 1413 1411 1410 1408 1406 1404 1403 1401 1399 1398
1515 1513 1512 1510 1508 1507 1505 1503 1501 1499 1497 1495 1493 1492 1490 1488 1486 1484 1482 1480 1478 1476 1474 1472 1470 1468 1466 1464 1463 1461 1459 1457 1455 1453 1452 1450 1448 1447 1445 1443 1441 1439 1437 1435 1433 1431 1428 1427 1428 1427 1424 1422 1421 1420 1419 1418 1417 1416 1414 1413 1411 1409 1408 1406 1404 1403 1401 1399 1398
1515 1513 1512 1510 1508 1506 1504 1503 1501 1498 1497 1495 1493 1491 1489 1487 1485 1483 1481 1479 1478 1476 1474 1472 1470 1468 1466 1464 1462 1460 1459 1457 1455 1453 1451 1449 1448 1446 1444 1442 1440 1438 1436 1435 1433 1431 1429 1428 1428 1427 1424 1422 1420 1419 1418 1418 1417 1415 1414 1412 1411 1409 1408 1406 1404 1402 1401 1399 1398
1514 1513 1511 1509 1508 1506 1504 1502 1500 1498 1496 1494 1493 1491 1489 1487 1485 1483 1481 1479 1477 1475 1473 1471 1469 1467 1465 1464 1462 1460 1458 1457 1455 1453 1451 1449 1447 1445 1444 1442 1440 1438 1436 1435 1433 1431 1429 1428 1427 1425 1422 1421 1420 1419 1418 1417 1416 1415 1414 1412 1411 1409 1408 1406 1404 1403 1401 1399 1398
1514 1512 1511 1509 1507 1505 1503 1501 1499 1498 1496 1494 1492 1490 1488 1486 1484 1483 1481 1478 1477 1475 1473 1471 1469 1467 1466 1464 1462 1460 1458 1456 1454 1453 1451 1449 1447 1445 1443 1442 1440 1438 1436 1435 1433 1431 1429 1427 1425 1422 1420 1419 1419 1418 1418 1417 1416 1415 1414 1412 1411 1409 1408 1406 1404 1403 1401 1399 1398
1513 1512 1510 1508 1506 1504 1503 1501 1499 1497 1495 1493 1491 1490 1488 1486 1484 1482 1480 1478 1476 1474 1472 1470 1469 1467 1466 1464 1462 1460 1458 1456 1454 1453 1451 1449 1447 1445 1443 1442 1440 1438 1437 1435 1433 1431 1429 1427 1423 1420 1420 1419 1418 1418 1417 1417 1416 1415 1414 1413 1411 1409 1408 1407 1405 1403 1401 1400 1398
1513 1511 1509 1508 1506 1504 1502 1500 1498 1496 1494 1493 1491 1489 1487 1485 1483 1482 1480 1478 1476 1474 1472 1470 1469 1467 1466 1464 1462 1460 1458 1457 1455 1453 1451 1449 1447 1445 1443 1442 1440 1439 1437 1436 1434 1432 1430 1427 1423 1420 1420 1419 1419 1418 1417 1416 1416 1415 1414 1413 1411 1410 1408 1407 1405 1403 1402 1401 1399
1512 1510 1508 1507 1505 1503 1501 1499 1498 1496 1494 1492 1490 1488 1487 1485 1483 1481 1479 1477 1475 1474 1472 1470 1469 1467 1465 1464 1462 1460 1458 1457 1455 1453 1451 1449 1447 1445 1443 1442 1440 1439 1437 1436 1434 1433 1431 1427 1423 1421 1421 1420 1419 1418 1417 1416 1415 1415 1414 1413 1411 1410 1408 1407 1406 1404 1403 1402 1400
1512 1510 1508 1506 1504 1503 1501 1499 1497 1495 1493 1492 1490 1488 1486 1484 1482 1480 1479 1477 1475 1473 1472 1470 1468 1467 1465 1464 1462 1460 1458 1457 1455 1453 1452 1450 1448 1446 1444 1442 1441 1439 1437 1435 1434 1433 1431 1428 1425 1423 1421 1420 1419 1418 1417 1416 1415 1415 1414 1413 1411 1410 1409 1408 1406 1405 1403 1403 1401
1511 1509 1507 1505 1503 1502 1500 1498 1496 1494 1493 1491 1489 1487 1486 1484 1482 1480 1478 1477 1475 1473 1471 1469 1468 1466 1464 1463 1462 1460 1458 1457 1455 1453 1452 1450 1448 1446 1444 1443 1441 1439 1437 1436 1434 1433 1431 1429 1426 1424 1422 1420 1419 1418 1417 1416 1415 1415 1414 1413 1411 1410 1409 1408 1407 1405 1404 1403 1402
1510 1508 1506 1504 1503 1501 1499 1497 1496 1494 1492 1490 1488 1487 1485 1483 1481 1480 1478 1476 1474 1473 1471 1469 1467 1465 1464 1462 1461 1459 1458 1457 1455 1453 1452 1450 1448 1447 1445 1443 1441 1439 1438 1436 1434 1433 1431 1429 1427 1424 1422 1420 1419 1418 1418 1416 1415 1415 1414 1413 1412 1410 1409 1408 1407 1406 1405 1404 1403
1509 1507 1505 1503 1502 1500 1498 1496 1495 1493 1491 1489 1488 1486 1484 1483 1481 1479 1477 1475 1474 1472 1470 1469 1467 1465 1464 1462 1461 1459 1458 1457 1455 1453 1452 1450 1449 1447 1445 1443 1441 1440 1438 1436 1435 1433 1432 1429 1427 1424 1423 1421 1419 1418 1418 1417 1416 1415 1414 1413 1412 1411 1410 1409 1408 1407 1406 1405 1404
1508 1506 1504 1503 1501 1499 1497 1495 1493 1492 1490 1488 1487 1485 1483 1482 1480 1478 1476 1475 1473 1472 1470 1468 1467 1465 1463 1462 1461 1459 1458 1456 1455 1453 1452 1450 1449 1447 1445 1443 1442 1440 1438 1437 1435 1434 1432 1430 1428 1426 1423 1421 1420 1419 1418 1417 1416 1415 1414 1413 1412 1411 1410 1409 1408 1407 1406 1406 1405
1507 1505 1503 1501 1499 1498 1496 1494 1492 1491 1489 1487 1486 1484 1483 1481 1479 1478 1476 1474 1472 1471 1469 1468 1466 1464 1463 1462 1460 1458 1457 1456 1455 1453 1452 1450 1449 1447 1446 1444 1443 1441 1439 1437 1436 1434 1433 1431 1429 1427 1424 1422 1421 1419 1418 1417 1416 1415 1414 1413 1412 1412 1411 1410 1409 1408 1407 1407 1406
1507 1504 1502 1500 1498 1497 1495 1493 1491 1489 1488 1486 1485 1483 1482 1480 1478 1477 1475 1473 1472 1470 1468 1467 1465 1464 1462 1461 1459 1458 1457 1456 1455 1453 1452 1450 1449 1447 1446 1444 1443 1441 1439 1438 1436 1435 1434 1432 1430 1428 1425 1423 1421 1420 1419 1418 1417 1416 1415 1414 1413 1412 1411 1411 1409 1408 1408 1408 1407
1505 1503 1501 1499 1497 1495 1493 1492 1490 1488 1486 1485 1483 1482 1480 1479 1477 1476 1474 1473 1471 1469 1467 1466 1464 1463 1462 1460 1459 1458 1457 1455 1454 1453 1452 1450 1448 1447 1446 1445 1443 1442 1440 1439 1437 1436 1435 1433 1431 1429 1427 1424 1422 1421 1419 1418 1417 1416 1415 1414 1414 1413 1412 1412 1411 1409 1409 1408 1408
1504 1503 1500 1498 1496 1494 1493 1491 1489 1487 1485 1484 1482 1481 1479 1478 1476 1475 1473 1472 1471 1469 1467 1465 1464 1463 1461 1460 1458 1457 1456 1455 1454 1453 1452 1450 1448 1447 1446 1445 1443 1442 1441 1439 1438 1437 1436 1434 1432 1430 1428 1426 1423 1422 1420 1419 1418 1417 1416 1415 1414 1414 1413 1413 1412 1411 1410 1410 1408
1503 1502 1500 1498 1496 1493 1492 1490 1488 1486 1485 1483 1481 1479 1478 1476 1475 1474 1472 1471 1470 1468 1467 1465 1464 1462 1461 1459 1458 1457 1456 1454 1454 1453 1451 1450 1448 1447 1446 1444 1443 1442 1441 1440 1439 1438 1437 1435 1433 1431 1429 1427 1424 1423 1422 1420 1419 1418 1417 1416 1415 1415 1414 1413 1413 1412 1411 1411 1410
1503 1501 1499 1497 1495 1493 1491 1489 1487 1485 1484 1482 1481 1479 1477 1475 1474 1473 1471 1470 1469 1468 1466 1465 1463 1462 1461 1459 1458 1457 1455 1454 1453 1452 1451 1449 1448 1447 1445 1444 1443 1442 1441 1440 1439 1438 1437 1436 1434 1433 1431 1428 1426 1424 1423 1421 1420 1419 1418 1417 1416 1415 1415 1414 1413 1413 1412 1412 1411
Wind_Speed
24 24 24 24 24 24 25 24 24 25 26 27 27 25 24 23 24 24 24 25 26 28 29 29 29 29 28 27 26 26 26 26 25 24 23 22 23 24 26 27 28 28 27 27 28 28 27 27 27 27 27 26 26 26 25 24 24 24 23 23 22 22 23 23 24 25 25 25 25
24 25 25 24 25 25 25 25 25 26 27 27 26 24 23 22 23 25 26 27 27 28 29 29 29 29 28 27 26 26 26 26 26 25 24 23 23 23 25 26 27 28 27 28 28 28 28 28 27 27 27 26 26 26 26 25 25 25 25 24 23 21 21 21 22 23 23 24 25
25 25 25 25 25 25 25 25 26 27 27 27 26 23 22 22 23 25 26 27 28 28 28 28 29 29 29 28 27 26 26 26 26 26 25 24 23 24 24 25 27 27 27 28 28 28 28 28 28 27 27 26 26 26 26 26 26 25 26 26 26 24 22 20 20 21 22 24 24
25 25 25 25 25 25 25 25 26 27 27 27 25 23 22 22 24 25 27 27 27 27 27 27 28 28 28 28 27 27 26 26 26 26 25 24 24 24 25 26 27 27 28 28 29 29 28 28 28 27 27 26 26 26 26 26 26 26 26 26 27 27 25 22 20 19 20 22 24
26 26 25 25 25 25 25 26 26 27 27 26 24 23 23 24 25 26 27 28 27 27 27 27 27 27 28 28 28 28 27 26 25 25 25 25 25 25 25 26 27 28 28 29 29 29 29 28 28 27 27 26 25 25 25 26 26 25 25 25 26 27 27 26 23 21 20 21 22
27 27 26 26 26 26 26 26 26 26 26 25 23 23 23 25 26 26 27 27 28 27 27 27 26 26 27 27 27 28 27 27 26 25 25 26 26 26 26 26 27 28 29 29 30 29 29 29 28 28 27 26 25 25 25 25 25 25 24 24 24 25 27 28 27 24 22 22 22
27 27 27 26 26 26 26 26 26 26 25 24 23 23 24 25 26 27 27 27 27 28 27 27 26 26 26 26 27 27 27 27 26 26 26 26 26 26 26 27 27 27 28 29 30 30 29 29 29 28 27 26 25 25 25 24 24 24 24 23 23 23 25 26 27 27 25 23 23
27 27 26 26 26 26 26 26 26 25 25 24 23 24 25 26 26 26 27 27 27 27 27 27 27 26 26 26 26 26 26 26 26 26 26 26 27 27 27 27 27 28 29 30 30 30 30 29 28 28 27 25 24 23 23 23 23 23 23 23 23 23 23 24 26 27 26 24 22
27 27 27 26 26 26 26 26 25 25 25 24 24 25 26 26 26 26 26 27 27 27 27 27 27 26 25 25 25 25 25 26 26 26 26 26 27 27 27 27 27 28 29 30 31 30 30 29 28 27 25 23 22 22 22 22 23 23 23 23 23 23 23 23 24 26 26 25 23
27 27 27 27 27 26 26 26 26 25 25 25 25 26 26 26 26 26 26 26 27 27 27 27 27 26 26 25 25 25 25 25 26 26 26 26 26 26 27 27 28 29 30 30 30 30 29 28 27 25 23 22 21 20 21 22 23 23 23 23 23 23 24 24 24 25 26 25 23
27 27 27 27 27 27 27 27 26 26 26 26 26 27 27 26 26 26 26 26 27 27 27 27 26 26 26 25 25 25 24 25 25 26 26 26 26 26 26 27 27 29 30 30 30 29 29 27 25 23 21 20 19 20 20 21 22 23 23 23 23 23 24 24 24 25 25 25 24
28 28 28 27 27 27 27 27 27 27 27 27 27 27 27 27 26 26 26 26 27 28 27 27 26 26 26 26 25 25 24 24 25 25 25 25 25 25 26 26 27 28 29 29 29 28 28 27 24 21 19 18 19 19 20 21 22 23 23 23 23 23 23 24 24 24 25 24 23
28 28 28 28 28 28 28 28 28 28 28 27 27 27 27 27 27 26 26 27 28 28 28 27 27 26 26 26 25 25 24 24 24 24 25 25 25 25 26 26 27 28 29 28 27 27 27 26 24 21 19 18 19 20 20 21 22 22 23 23 23 23 23 23 24 24 24 23 23
28 28 28 28 28 28 28 29 29 28 28 28 28 28 28 27 27 27 27 28 29 29 28 28 27 26 26 26 25 25 24 24 24 24 24 24 25 25 26 27 27 28 28 27 25 26 27 27 23 20 18 19 20 21 21 21 21 22 22 22 22 22 22 23 23 23 23 23 22
29 28 28 28 28 28 29 29 29 29 29 28 28 28 28 28 28 28 28 29 29 29 29 28 28 27 26 25 25 24 24 23 23 23 24 24 25 25 26 27 27 27 27 25 24 25 27 27 23 19 18 19 21 22 22 21 21 21 21 21 21 21 22 22 22 22 22 22 22
29 29 28 28 28 28 29 29 29 29 29 29 28 28 28 28 28 28 29 29 30 29 29 28 28 27 26 25 25 24 23 23 23 23 24 25 25 26 26 27 27 27 26 24 23 25 27 27 23 18 17 19 21 22 22 22 21 20 20 20 20 20 20 20 21 21 21 20 21
29 29 28 28 28 29 29 29 29 30 29 29 29 28 28 28 28 29 29 30 29 29 29 28 27 27 26 25 24 23 23 23 23 23 24 25 26 27 27 27 27 26 25 23 23 25 28 28 22 17 16 18 20 22 22 21 20 20 19 19 18 18 18 18 19 19 20 19 19
29 28 28 28 28 29 29 29 30 30 30 30 29 28 28 28 29 29 30 29 29 29 28 28 27 26 25 24 24 23 23 23 23 24 24 25 26 27 27 27 26 25 23 22 22 24 28 30 24 18 15 17 19 21 21 20 20 19 18 17 16 15 16 16 17 18 18 18 18
29 28 28 28 29 29 29 30 30 30 31 30 30 29 29 29 29 30 30 29 29 28 28 27 27 26 24 24 23 23 23 24 24 24 25 25 26 27 27 27 26 24 22 21 22 24 27 31 28 22 17 16 18 20 21 20 19 18 16 15 14 13 14 15 16 17 17 17 17
28 28 28 28 29 29 29 30 30 31 31 31 30 30 30 30 30 30 30 29 28 28 27 27 26 25 24 23 23 23 24 24 24 25 25 25 26 27 27 27 26 23 22 21 22 23 27 33 33 26 19 16 18 20 20 19 18 16 15 13 12 12 14 15 16 17 17 17 17
28 28 28 28 29 29 29 30 30 31 31 31 31 30 30 30 30 30 29 29 28 27 27 26 25 25 24 24 24 24 24 24 25 25 25 26 26 27 27 27 25 23 22 21 21 23 28 35 37 30 20 16 17 19 19 17 16 15 13 11 11 12 14 16 17 18 18 18 17
28 28 28 28 29 29 29 30 30 31 31 31 31 31 31 31 30 30 29 28 28 27 26 25 25 25 25 25 25 25 25 25 25 25 25 26 27 27 27 26 25 23 22 22 22 24 29 37 39 30 20 16 17 18 17 15 15 14 12 11 12 14 15 17 18 18 19 19 18
28 28 28 29 29 29 29 30 30 31 31 32 31 31 31 31 30 30 29 28 27 26 25 25 25 25 26 26 25 25 25 25 25 25 25 26 27 27 27 26 24 23 23 23 24 25 31 38 39 30 20 16 17 17 15 13 13 14 13 14 14 15 17 18 19 19 19 19 19
28 28 29 29 29 29 29 30 30 31 31 32 31 31 31 31 31 30 29 28 27 26 25 24 25 26 26 26 26 25 25 25 25 26 27 27 27 27 27 26 25 24 24 24 24 26 31 38 37 30 20 17 17 16 14 12 12 13 15 16 16 17 18 18 19 19 20 20 21
28 29 29 29 29 30 30 30 30 31 31 31 31 31 31 31 31 30 30 28 27 26 24 24 25 26 27 27 26 26 25 25 26 27 28 27 28 28 27 26 26 25 25 24 24 26 31 37 36 28 20 17 16 16 14 12 11 13 15 17 18 18 18 19 19 19 20 20 21
28 29 29 29 30 30 30 30 30 31 31 31 31 31 31 31 31 30 30 29 27 26 25 24 25 27 28 28 27 26 25 25 26 27 28 27 28 27 27 26 26 27 26 25 24 28 34 39 37 26 17 15 15 15 14 13 11 12 14 16 18 19 19 19 19 19 20 20 21
28 29 29 30 30 30 30 30 30 31 31 31 31 31 31 31 31 30 30 29 28 26 25 25 25 27 28 28 28 27 26 25 26 26 27 27 27 26 26 26 26 26 26 25 25 31 38 43 35 22 13 13 14 14 14 14 13 13 14 16 18 19 19 19 18 19 19 20 21
29 29 30 30 30 30 30 30 31 31 31 31 31 31 31 31 31 30 30 29 28 27 26 26 25 26 27 27 28 27 26 25 25 26 27 27 26 26 25 25 25 25 24 24 27 34 43 44 30 17 11 12 13 14 15 15 15 14 15 16 17 18 19 19 18 18 19 20 20
29 29 30 30 30 31 31 31 31 31 31 32 31 31 31 31 30 30 30 29 28 27 26 26 26 26 26 26 27 27 27 26 25 25 26 27 26 25 25 25 24 23 23 24 28 38 45 41 28 19 14 14 14 14 15 16 16 15 16 16 17 18 18 19 18 18 18 18 19
29 29 30 30 30 31 31 31 31 32 32 32 32 32 31 31 31 30 30 29 28 27 26 26 26 26 26 26 26 27 27 26 25 25 26 27 27 26 25 25 23 23 23 24 29 39 44 39 30 23 18 15 14 14 15 15 16 16 16 16 17 17 18 18 17 17 17 17 18
28 29 30 30 30 31 31 31 31 32 32 32 32 32 32 31 31 30 30 29 28 27 26 26 26 26 26 25 25 26 26 25 24 24 25 26 26 26 25 25 24 23 23 26 30 38 43 39 32 26 21 17 15 15 15 15 15 15 15 16 17 17 17 17 17 16 15 16 17
29 29 30 30 30 31 31 31 31 32 32 32 32 32 32 32 31 30 30 29 28 28 27 26 26 26 26 25 25 25 25 25 24 24 24 25 26 26 25 25 24 23 24 26 31 37 41 41 35 28 23 20 17 16 15 16 15 15 15 15 16 16 16 16 16 15 15 16 17
29 29 30 30 30 31 31 31 31 32 32 32 32 32 32 32 31 31 30 29 29 28 27 27 26 26 26 26 26 25 25 24 24 23 23 23 24 25 25 25 24 24 24 26 30 35 39 40 37 31 26 22 19 17 16 16 15 15 15 15 16 15 15 15 15 15 14 15 16
29 30 30 30 30 31 31 31 31 31 31 32 32 32 32 32 31 31 31 30 29 28 27 26 26 26 26 26 26 25 24 23 23 23 23 22 23 24 25 25 24 24 24 25 28 32 36 39 39 35 29 24 20 18 17 16 15 15 15 15 15 14 13 14 15 15 14 14 15
29 30 30 30 31 31 31 31 31 31 31 31 32 31 31 31 31 31 31 30 29 29 28 26 26 25 25 25 24 24 23 22 22 23 23 22 22 23 25 25 24 24 23 24 27 31 33 36 38 36 31 27 23 20 18 17 15 15 15 15 15 14 12 14 16 17 16 15 15
29 30 30 31 31 31 31 31 32 32 32 32 32 31 31 30 30 30 30 30 30 29 28 27 26 26 25 25 25 24 22 21 22 23 23 23 22 22 23 24 24 24 23 24 26 29 31 33 36 36 33 29 26 23 20 17 16 15 15 15 15 14 13 14 18 20 20 19 17
29 30 30 31 31 31 32 32 32 32 32 32 32 31 30 29 29 28 28 29 29 29 29 28 27 26 26 26 25 24 22 21 21 22 23 23 22 21 22 23 24 24 24 24 26 28 29 31 33 35 34 31 29 26 21 18 16 15 15 15 15 15 14 13 17 22 24 23 21
29 30 30 31 31 32 32 32 32 33 33 32 32 31 30 29 28 27 27 27 28 28 28 28 27 26 26 26 26 25 23 21 20 21 23 23 21 20 20 21 22 23 23 23 25 26 28 29 31 33 33 32 31 27 23 18 16 15 15 15 15 15 14 13 15 19 22 23 23
30 30 30 30 31 32 32 32 32 32 32 32 31 31 30 28 27 26 26 25 26 26 27 27 27 26 26 25 25 25 23 21 20 20 22 22 21 19 18 18 20 21 22 22 24 25 27 28 29 31 31 31 31 28 23 19 15 14 15 15 15 15 14 13 13 14 17 20 22
30 30 31 31 31 32 32 32 31 31 31 30 30 30 29 28 27 26 25 24 24 24 25 26 26 26 25 25 25 25 23 21 20 20 21 22 20 18 17 16 17 18 19 20 22 24 25 26 28 29 30 30 30 28 24 19 15 14 14 14 14 14 14 14 13 13 14 16 19
30 31 31 32 32 32 31 31 30 30 29 28 28 28 28 27 26 25 24 24 23 23 23 24 25 25 25 24 25 24 23 21 20 20 20 21 21 19 17 15 14 15 17 18 20 22 23 25 26 28 29 29 30 29 26 20 16 14 13 13 13 14 15 15 15 15 15 16 17
Wind_Direction
348 347 346 345 343 342 340 339 337 336 336 336 336 336 334 331 329 328 328 329 329 330 331 331 330 330 332 333 334 332 331 330 330 331 334 337 335 329 325 326 333 338 339 337 336 336 336 336 336 336 336 337 337 338 338 337 334 330 327 323 317 310 304 298 293 289 288 288 286
347 345 344 343 342 340 339 337 335 335 335 336 337 335 332 329 327 327 328 329 330 331 331 330 330 330 331 332 332 331 329 329 329 331 333 335 333 328 325 326 332 335 336 336 335 334 334 334 334 334 335 335 335 336 338 339 336 333 332 331 327 320 311 304 298 293 290 288 286
345 344 343 341 340 338 336 334 333 333 334 336 337 335 330 328 326 326 327 329 331 331 331 330 330 331 331 330 330 328 327 327 329 331 332 333 331 328 326 328 331 333 334 334 334 333 333 332 332 333 333 333 332 333 335 338 338 335 333 335 335 331 324 313 305 299 295 291 288
344 343 341 339 337 336 334 333 332 333 334 336 337 334 330 328 327 327 328 329 331 331 331 330 330 330 330 329 327 325 325 326 328 330 331 331 330 329 330 331 333 333 332 332 332 332 332 331 331 331 332 332 331 331 332 336 338 337 334 334 335 335 332 325 313 303 298 296 292
344 343 341 339 337 336 335 333 333 334 335 336 336 334 330 328 328 328 329 330 330 331 331 331 331 330 329 327 325 324 324 324 326 328 329 329 329 330 331 333 333 331 330 329 329 330 331 331 330 330 331 331 330 329 331 335 338 337 334 332 332 334 335 332 323 310 299 295 291
344 342 341 339 338 337 336 335 335 335 336 336 335 333 330 329 330 330 330 330 330 331 331 331 331 329 328 327 325 324 323 324 324 325 326 326 328 329 332 332 331 329 327 326 327 328 330 331 330 330 330 330 330 329 331 334 337 337 335 331 330 331 333 334 330 321 307 295 288
344 343 342 340 340 339 338 337 337 337 338 338 336 333 331 331 332 332 331 331 330 331 331 331 330 329 328 327 325 324 324 323 323 322 322 323 325 327 330 331 330 328 325 325 326 328 330 331 331 331 330 330 329 330 332 335 337 338 337 333 330 329 330 332 332 328 318 305 293
345 344 343 342 342 341 340 340 340 341 341 341 339 336 335 334 334 334 333 332 332 331 331 331 330 329 328 327 326 325 324 323 322 321 321 321 322 325 327 328 328 326 324 324 325 328 330 332 332 331 330 330 330 331 333 336 338 339 339 336 332 329 329 330 331 330 325 315 302
347 346 345 345 344 344 343 344 344 345 345 344 341 339 338 338 337 336 335 334 333 332 332 331 330 329 328 327 326 326 325 324 322 321 321 321 321 323 324 325 325 323 322 323 326 329 332 333 332 330 329 329 330 332 334 338 339 340 339 338 335 331 329 329 331 331 329 323 313
349 348 347 347 347 347 347 348 348 348 348 346 343 342 341 341 340 339 338 336 335 334 333 331 330 329 329 328 328 327 326 325 324 323 322 321 321 322 322 322 322 321 321 323 327 331 334 334 332 329 328 328 330 333 337 339 339 338 338 338 337 334 331 330 332 334 333 328 321
350 350 350 349 349 350 351 351 351 351 349 347 345 344 344 344 344 343 342 340 337 335 334 333 332 331 331 330 329 328 327 326 325 324 323 323 322 321 321 320 320 320 322 325 329 333 336 335 332 330 329 330 332 336 339 340 338 337 337 338 337 335 333 332 334 337 336 332 326
351 351 351 351 352 353 354 354 353 352 351 349 347 346 346 346 347 347 345 343 339 337 336 335 334 333 332 331 330 329 328 327 326 325 324 324 323 322 320 319 320 321 324 327 331 335 337 336 333 330 330 332 335 338 340 339 335 334 335 337 337 335 334 334 335 338 339 336 331
352 352 352 353 354 355 356 355 354 353 351 349 349 347 347 348 350 349 347 343 341 339 338 337 336 335 334 332 331 330 329 328 327 326 326 325 325 323 322 321 322 325 327 329 332 335 337 337 334 330 329 333 337 339 338 335 332 331 333 335 336 335 334 334 335 338 340 340 336
352 353 353 354 356 357 357 356 355 353 352 351 350 349 348 349 351 351 348 344 342 341 340 338 337 336 335 334 332 330 329 328 327 327 328 327 327 325 325 325 327 329 330 331 332 335 338 338 334 330 329 333 337 338 337 334 330 330 331 333 334 335 334 334 335 337 340 343 342
353 353 354 355 357 358 358 357 355 354 352 351 350 349 348 349 351 351 349 345 344 342 341 340 338 337 336 335 333 331 329 328 328 329 330 330 329 329 329 329 331 332 332 331 331 335 339 340 337 331 329 334 336 336 333 331 329 329 330 332 332 333 334 335 336 337 341 345 346
353 353 354 356 358 359 359 358 356 354 353 351 350 349 349 350 351 351 349 346 345 343 342 341 340 339 338 336 334 332 330 329 329 331 332 333 333 332 333 334 334 334 333 330 330 334 341 344 340 334 331 334 335 333 330 328 328 329 330 331 332 333 334 335 337 338 341 345 349
353 354 355 357 358 359 359 358 356 355 353 352 351 350 350 351 351 350 349 347 345 344 343 342 341 340 339 338 336 334 332 331 331 332 334 335 336 336 336 337 337 335 332 329 327 333 341 347 346 339 334 334 333 331 329 328 329 331 332 332 332 333 335 337 340 341 343 345 349
353 354 355 357 358 359 359 358 356 355 354 353 352 351 351 352 351 350 349 348 346 345 344 343 343 342 341 340 339 338 336 335 333 333 334 335 336 337 338 339 337 334 330 326 324 330 340 349 351 347 339 335 332 330 330 330 332 333 333 333 332 334 338 342 345 346 347 347 349
353 354 355 357 357 358 358 357 356 355 354 354 353 353 353 353 352 350 349 348 347 346 345 345 344 344 343 343 343 342 340 338 336 334 334 335 336 337 338 338 336 332 327 324 322 327 339 350 353 351 343 334 330 330 332 333 335 337 336 334 335 338 344 349 352 354 354 352 350
354 354 355 356 356 357 356 356 356 355 355 354 354 354 354 353 352 351 350 349 349 348 348 347 346 346 346 347 347 346 344 341 339 337 336 336 336 338 339 338 335 329 324 321 320 326 338 349 352 349 340 329 328 331 334 337 340 341 339 338 341 347 353 357 1 2 1 358 354
354 355 355 355 355 355 355 355 356 355 355 355 355 355 354 353 352 351 351 350 350 350 350 349 348 348 350 351 351 350 348 345 344 342 341 339 339 340 339 338 333 327 320 318 321 327 338 348 349 345 334 324 327 331 335 340 345 347 347 348 354 359 3 6 8 8 7 4 360
354 354 355 355 355 354 354 355 355 355 356 356 356 355 354 353 352 352 352 352 352 351 351 351 351 352 353 354 353 352 350 349 348 347 346 345 344 343 342 339 334 326 319 317 323 330 339 348 347 342 331 324 326 330 335 344 352 355 359 3 6 9 11 13 14 14 13 10 6
353 354 354 354 354 354 354 354 355 355 356 356 356 355 354 353 352 352 353 353 353 353 352 352 353 354 355 355 354 354 353 352 351 351 350 350 350 349 347 343 336 328 322 320 325 332 341 347 345 341 333 326 325 328 335 347 356 2 7 11 12 13 15 17 19 20 19 16 13
353 353 353 353 353 353 353 353 354 355 356 356 356 355 354 353 353 353 354 354 355 354 353 353 355 356 356 356 355 355 355 355 355 355 354 353 353 353 352 348 341 334 328 326 328 336 343 345 343 340 335 328 325 328 335 347 356 3 8 12 13 14 15 18 22 25 26 23 19
352 352 352 352 352 352 352 352 353 354 355 355 355 355 354 354 353 353 354 355 355 355 354 354 355 356 357 356 356 356 356 357 358 358 356 354 355 356 355 352 347 341 335 333 334 340 343 343 341 339 333 325 324 328 335 344 352 359 4 8 11 12 13 15 21 27 31 29 24
350 351 351 351 351 351 351 351 352 353 354 355 355 354 354 354 354 354 354 355 356 355 355 355 355 356 357 356 356 356 357 358 359 358 356 354 356 357 358 357 353 349 344 342 340 341 342 341 340 338 331 325 326 331 336 341 346 352 358 2 6 9 10 12 18 26 32 32 28
350 350 350 350 350 350 350 351 351 352 353 354 354 354 353 353 353 354 354 355 356 356 356 355 355 355 355 355 355 356 357 358 359 358 356 355 357 359 0 0 359 357 355 352 348 345 344 343 343 342 336 332 333 335 338 340 343 348 353 357 360 4 7 10 15 22 28 31 28
349 349 349 350 350 350 350 350 351 351 352 353 353 352 352 352 353 353 354 355 356 357 357 355 354 353 353 353 354 355 356 357 358 357 357 357 359 1 2 3 3 4 4 3 357 351 349 350 355 1 359 348 343 341 340 341 344 349 352 353 355 359 4 9 14 20 25 26 24
349 349 349 349 350 350 350 351 351 351 352 352 352 352 351 351 351 352 353 354 356 357 357 355 352 351 350 350 351 352 354 356 358 358 357 357 360 2 3 3 5 8 11 10 2 356 355 360 10 18 13 359 350 345 342 342 346 351 354 353 352 355 1 8 13 20 23 22 20
349 349 349 349 350 350 350 351 351 351 351 351 351 351 351 350 350 350 351 353 354 356 356 354 352 350 349 348 349 350 352 354 357 358 358 358 360 2 3 2 4 9 14 13 4 360 1 8 16 19 14 2 353 348 345 345 348 352 354 353 350 351 357 5 13 21 24 23 21
349 348 348 348 349 349 350 350 350 351 351 351 350 350 350 349 349 349 349 350 352 353 354 353 352 350 348 347 347 348 349 352 355 356 357 357 359 1 1 0 3 9 14 14 6 3 6 11 15 16 12 5 358 353 351 350 352 354 354 351 348 348 354 3 14 24 29 27 25
347 347 347 347 347 348 348 349 349 349 349 349 349 349 349 348 347 347 347 348 349 351 352 352 352 350 349 348 347 347 348 350 352 353 355 357 360 1 1 360 2 7 11 12 7 5 6 11 14 14 11 8 3 359 356 355 356 357 355 351 346 346 352 3 17 31 37 34 30
345 345 344 344 344 345 346 346 347 347 347 347 347 347 347 346 346 345 345 346 347 348 350 351 350 350 349 348 347 346 346 347 349 350 352 355 360 2 2 1 2 5 8 10 7 5 5 9 13 13 12 10 7 3 360 0 1 1 358 352 347 346 352 7 24 38 45 41 35
342 341 341 340 341 341 342 342 343 343 343 343 344 344 344 344 343 344 344 344 344 345 346 348 348 348 348 348 347 345 344 345 346 347 348 351 357 1 3 3 2 3 5 8 7 4 4 7 11 12 12 11 9 5 2 4 6 6 2 356 350 349 356 12 31 46 54 47 40
338 337 336 336 336 337 337 338 338 339 339 339 340 340 340 341 341 341 342 342 341 341 342 344 346 347 347 347 347 345 344 344 345 344 344 346 351 357 2 3 3 3 4 6 6 4 3 5 8 10 11 12 10 7 4 6 9 9 7 1 357 356 3 18 34 49 59 55 47
335 334 333 332 333 333 333 333 334 334 335 335 336 336 336 337 338 338 339 339 339 339 339 341 343 344 346 346 346 345 344 344 344 343 342 343 346 352 357 0 1 2 3 5 4 3 2 3 6 8 10 12 11 9 6 7 9 11 11 8 6 5 10 22 34 46 55 58 53
333 332 331 330 330 330 330 330 330 331 331 332 332 333 333 333 334 335 336 337 337 337 337 338 340 342 343 344 345 345 344 343 341 340 341 342 345 349 353 356 358 0 3 5 4 2 1 2 4 6 8 9 11 10 8 7 8 11 13 15 15 15 17 23 32 41 47 52 52
334 333 331 330 330 329 329 329 329 329 330 330 330 330 330 330 331 332 333 335 335 336 336 336 337 338 340 342 343 343 343 342 338 338 340 344 347 350 352 353 354 357 1 4 4 2 0 1 3 5 6 7 8 8 7 6 7 11 15 20 24 27 27 27 30 35 39 43 44
336 335 334 332 331 330 329 329 329 329 329 329 329 329 330 330 329 330 331 332 334 334 334 335 335 336 337 339 341 342 342 341 338 337 340 346 350 352 352 352 352 353 356 1 4 2 1 0 2 4 4 5 6 7 7 6 7 11 16 22 29 35 37 33 30 30 32 34 37
338 337 336 336 334 333 331 330 330 330 330 331 331 331 331 331 330 329 329 330 332 333 333 333 333 334 335 337 339 340 341 340 338 337 340 346 351 354 355 354 353 351 352 356 0 1 0 0 2 3 4 5 7 9 9 8 8 11 17 23 29 34 36 34 34 34 34 33 35
339 339 338 338 337 335 334 332 333 333 334 335 334 334 334 333 332 331 331 331 331 332 332 331 331 332 334 336 337 339 340 340 337 337 340 345 350 354 357 359 357 353 351 352 356 359 360 0 2 3 4 4 8 12 14 12 10 11 16 22 26 28 29 31 37 41 41 38 38